TimeEST,TemperatureF,Dew PointF,Humidity,Sea Level PressureIn,VisibilityMPH,Wind Direction,Wind SpeedMPH,Gust SpeedMPH,PrecipitationIn,Events,Conditions,WindDirDegrees,DateUTC
12:53 AM,66.9,64.9,93,30.13,10.0,Calm,Calm,-,N/A,,Clear,0,2013-01-04 05:53:00
1:53 AM,66.9,64.9,93,30.12,10.0,Calm,Calm,-,N/A,,Clear,0,2013-01-04 06:53:00
2:53 AM,64.9,64.0,97,30.12,10.0,Calm,Calm,-,N/A,,Clear,0,2013-01-04 07:53:00
3:53 AM,64.9,64.0,97,30.13,10.0,Calm,Calm,-,N/A,,Clear,0,2013-01-04 08:53:00
4:53 AM,63.0,63.0,100,30.13,10.0,Calm,Calm,-,N/A,,Clear,0,2013-01-04 09:53:00
5:34 AM,64.4,64.4,100,30.13,10.0,Calm,Calm,-,N/A,,Mostly Cloudy,0,2013-01-04 10:34:00
5:53 AM,64.9,64.9,100,30.14,10.0,Calm,Calm,-,N/A,,Scattered Clouds,0,2013-01-04 10:53:00
6:53 AM,64.0,64.0,100,30.15,10.0,Calm,Calm,-,N/A,,Scattered Clouds,0,2013-01-04 11:53:00
7:53 AM,66.2,66.2,100,30.17,10.0,Calm,Calm,-,N/A,,Clear,0,2013-01-04 12:53:00
8:53 AM,72.0,68.0,87,30.20,10.0,Calm,Calm,-,N/A,,Clear,0,2013-01-04 13:53:00
9:53 AM,75.9,69.1,79,30.22,10.0,Calm,Calm,-,N/A,,Clear,0,2013-01-04 14:53:00
10:53 AM,79.0,69.1,72,30.21,10.0,NNW,4.6,-,N/A,,Scattered Clouds,330,2013-01-04 15:53:00
11:53 AM,81.0,66.0,60,30.19,10.0,Calm,Calm,-,N/A,,Scattered Clouds,0,2013-01-04 16:53:00
12:53 PM,81.0,64.9,58,30.16,10.0,Variable,3.5,-,N/A,,Mostly Cloudy,0,2013-01-04 17:53:00
1:53 PM,84.0,68.0,58,30.14,10.0,Variable,3.5,-,N/A,,Scattered Clouds,0,2013-01-04 18:53:00
2:53 PM,77.0,70.0,79,30.14,10.0,East,9.2,-,0.00,Rain,Light Rain,80,2013-01-04 19:53:00
3:53 PM,77.0,69.1,76,30.15,10.0,East,5.8,-,0.00,,Mostly Cloudy,80,2013-01-04 20:53:00
4:53 PM,77.0,69.1,76,30.16,10.0,East,9.2,-,N/A,,Scattered Clouds,90,2013-01-04 21:53:00
5:53 PM,75.0,69.1,82,30.17,10.0,NE,4.6,-,N/A,,Scattered Clouds,50,2013-01-04 22:53:00
6:53 PM,75.0,69.1,82,30.20,10.0,ENE,4.6,-,N/A,,Scattered Clouds,60,2013-01-04 23:53:00
7:53 PM,75.0,69.1,82,30.22,10.0,NE,3.5,-,N/A,,Mostly Cloudy,40,2013-01-05 00:53:00
8:44 PM,75.2,69.8,83,30.22,10.0,NNE,4.6,-,N/A,,Overcast,20,2013-01-05 01:44:00
8:53 PM,75.0,69.1,82,30.23,10.0,Variable,3.5,-,N/A,,Mostly Cloudy,0,2013-01-05 01:53:00
9:05 PM,73.4,69.8,88,30.23,10.0,North,4.6,-,N/A,,Scattered Clouds,10,2013-01-05 02:05:00
9:53 PM,73.0,69.1,87,30.24,10.0,Calm,Calm,-,N/A,,Scattered Clouds,0,2013-01-05 02:53:00
10:53 PM,71.1,68.0,90,30.24,10.0,North,4.6,-,N/A,,Scattered Clouds,10,2013-01-05 03:53:00
11:53 PM,70.0,66.9,90,30.23,10.0,Calm,Calm,-,N/A,,Scattered Clouds,0,2013-01-05 04:53:00